Voltar ao catálogo

SES 10

AtivoComunicaçõesGEO
NORAD 42432·PAYLOAD·🇱🇺 Luxembourg

Lançado Mar 30, 2017 de Cape Canaveral Space Force Station

Loading…

TLE

AtualizadoSource: CelesTrak SupGP

Época: Sep 13, 2026, 23:44 UTC

1 42432C 17017A   26256.98958333 -.00003447  00000+0  00000+0 0  2563
2 42432   0.0013 105.7668 0002625  68.6049 107.9645  1.00270893    15

Acompanhe SES 10 em tempo real com AllMySat

Download on the App Store